Location: Willow Springs
(37.9952°N, 120.2591°W)
Time: 22:32:34
(UTC+00:00)

Cosmos 2278 Rocket - Visible Passes

Search period start: 13 January 2026 00:00
Search period end: 23 January 2026 00:00
Orbit: 840 x 845 km, 71.0° (Epoch: 13 January)

Date Brightness Start Highest point End Pass type
(mag) Time Alt. Az. Time Alt. Az. Time Alt. Az.
13 Jan 5.3 12:15:17 10° ESE 12:16:26 11° E 12:17:34 10° E visible
13 Jan 2.1 13:53:58 10° SSW 13:59:36 86° WNW 14:05:18 10° NNE visible
14 Jan 2.1 13:39:04 10° SSW 13:44:42 89° ESE 13:50:23 10° NNE visible
15 Jan 2.2 13:24:10 10° SSW 13:29:48 85° ESE 13:35:29 10° NNE visible
16 Jan 2.2 13:09:17 10° SSW 13:14:54 81° ESE 13:20:35 10° NNE visible
17 Jan 2.2 12:56:02 20° SSW 13:00:00 77° ESE 13:05:40 10° NNE visible
17 Jan 3.7 14:41:23 10° W 14:44:42 16° NW 14:48:02 10° NNW visible
18 Jan 2.3 12:44:26 65° SSE 12:45:06 73° ESE 12:50:45 10° NNE visible
18 Jan 3.6 14:26:24 10° W 14:29:46 16° NW 14:33:15 10° NNW visible
19 Jan 2.8 12:31:34 51° NE 12:31:34 51° NE 12:35:50 10° NNE visible
19 Jan 3.6 14:13:29 16° WNW 14:14:49 17° NW 14:18:28 10° NNW visible
20 Jan 3.7 12:18:09 30° NE 12:18:09 30° NE 12:20:55 10° NNE visible
20 Jan 3.6 14:00:02 18° NW 14:00:02 18° NW 14:03:40 10° N visible
21 Jan 4.3 12:04:25 19° NNE 12:04:25 19° NNE 12:06:00 10° NNE visible
21 Jan 3.7 13:46:17 17° NW 13:46:17 17° NW 13:48:51 10° N visible
22 Jan 4.7 11:50:30 13° NNE 11:50:30 13° NNE 11:51:04 10° NNE visible
22 Jan 3.9 13:32:21 16° NNW 13:32:21 16° NNW 13:34:02 10° N visible
